PW-SAT2 (43814 NORAD) Tracking and Keplerian Element Data

This shows tracking and keplerian element data for the satellite.

Feedback or suggestion? Click here.




ElementValue
Catalog43814
NamePW-SAT2
Epoch Orbit12193
Epoch Day53.95883264
Epoch Year2021
RAAN151.3588
Inclination97.7595
Eccentricity0.0014519
Argument of Perigee299.9504
Mean Anonmoly60.0343
Mean Motion16.21683976
Decay Rate0.25888781
L11 43814U 18099BJ 21053.95883264 .25888781 26617-5 11832-1 0 9993
L22 43814 97.7595 151.3588 0014519 299.9504 60.0343 16.21683976121934

Live tracking and technical data element details for PW-SAT2 (NORAD 43814). PW-SAT2 can be tracked NOW for your location showing map with azimuth and elevation plus other details from your city location.

Track the satellite on the map from your city or location and see movement details for azimuth, elevation, latitude, longitude, range, height, and movement on the map or in text.







IsCatalogInMostPopularTable: catalog: 43814, numindb: 583
Update: records affected: 1



GetName: 43814 PW-SAT2

Hit Count: updated at: Tue, 28 Sep 2021 17:21:48 GMT